Regional Weather Roundup
Issued by NWS

Home | Current Version | Previous Version | Text Only | Print | Product List | Glossary On
Versions: 1 2 3 4 5 6 7 8 9 10 11 12 13 14 15 16 17 18 19 20 21 22 23 24 25 26 27 28 29 30 31 32 33 34 35 36 37 38 39 40 41 42 43 44 45 46 47 48 49 50
000
ASUS43 KLSX 311807
RWRMO

WEATHER SUMMARY FOR MISSOURI
NATIONAL WEATHER SERVICE SPRINGFIELD MO
1200 PM CST SAT JAN 31 2015

NOTE: "FAIR" INDICATES FEW OR NO CLOUDS BELOW 12,000 FEET WITH NO
       SIGNIFICANT WEATHER AND/OR OBSTRUCTIONS TO VISIBILITY.
       CURRENT SKY AND/OR WEATHER CONDITIONS ARE NOT AVAILABLE FOR
       CHILLICOTHE AND FARMINGTON.

MOZ001>031-035>038-043-044-053-054-311900-
...NORTHERN AND WESTERN MISSOURI...

CITY           SKY/WX    TMP DP  RH WIND       PRES   REMARKS
KANSAS CTY INT LGT RAIN  38  38 100 SE8       30.19F FOG
6HR MIN TEMP:  34; 6HR MAX TEMP:  38; 6HR PCP:  0.35;

KANSAS C DTWN  LGT RAIN  40  38  93 S7        30.19F
6HR MIN TEMP:  36; 6HR MAX TEMP:  40; 6HR PCP:  0.11;

LEE`S SUMMIT   LGT RAIN  37  36  96 S10       30.20F WCI  30
6HR MIN TEMP:  33; 6HR MAX TEMP:  38; 6HR PCP:  0.24;

ST JOSEPH      LGT RAIN  37  36  96 SE9       30.19F FOG
6HR MIN TEMP:  33; 6HR MAX TEMP:  37; 6HR PCP:  0.36;

CHILLICOTHE      N/A     37  36  96 S5        30.25F
6HR MIN TEMP:  33; 6HR MAX TEMP:  37; 6HR PCP:  0.17;

KIRKSVILLE     LGT RAIN  34  34 100 S6        30.23F FOG     WCI  29
6HR MIN TEMP:  29; 6HR MAX TEMP:  34; 6HR PCP:  0.11;


$$
MOZ066>068-077>081-088>096-101>105-311900-
...SOUTHWEST MISSOURI...

CITY           SKY/WX    TMP DP  RH WIND       PRES   REMARKS
SPRINGFIELD    CLOUDY    43  22  43 SE15      30.20F
6HR MIN TEMP:  37; 6HR MAX TEMP:  43; 6HR PCP: TRACE;

JOPLIN         CLOUDY    46  21  37 SE9       30.19F
6HR MIN TEMP:  40; 6HR MAX TEMP:  46;


$$
MOZ032>034-039>042-045>050-055>058-069>072-311900-
...CENTRAL MISSOURI...

CITY           SKY/WX    TMP DP  RH WIND       PRES   REMARKS
COLUMBIA       LGT RAIN  38  28  67 S6        30.27F
6HR MIN TEMP:  33; 6HR MAX TEMP:  38; 6HR PCP: TRACE;

JEFFERSON CITY CLOUDY    40  24  53 S3        30.29F
6HR MIN TEMP:  31; 6HR MAX TEMP:  40;

ROLLA          CLOUDY    41  26  55 SE3       30.25F
6HR MIN TEMP:  33; 6HR MAX TEMP:  41;

SEDALIA        LGT RAIN  39  34  82 SE7       30.24F
6HR MIN TEMP:  34; 6HR MAX TEMP:  39; 6HR PCP:  0.08;

WHITEMAN AFB   LGT RAIN  38  35  91 VRB3      30.22F FOG
OSAGE BEACH    CLOUDY    41  28  60 E5        30.25F

$$
MOZ051-052-059>065-311900-
...EAST CENTRAL MISSOURI...

CITY           SKY/WX    TMP DP  RH WIND       PRES   REMARKS
ST LOUIS INTL  CLOUDY    44  23  43 SW6       30.30F
6HR MIN TEMP:  32; 6HR MAX TEMP:  44;

SPIRIT OF STL  CLOUDY    43  23  45 SW7       30.29F
6HR MIN TEMP:  26; 6HR MAX TEMP:  43;

ST CHARLES     CLOUDY    37  28  70 CALM      30.30F
6HR MIN TEMP:  25; 6HR MAX TEMP:  37;


$$
MOZ072>076-082>087-097>100-106>115-311900-
...SOUTH CENTRAL AND SOUTHEAST MISSOURI...

CITY           SKY/WX    TMP DP  RH WIND       PRES   REMARKS
CAPE GIRARDEAU CLOUDY    41  27  57 S7        30.35F
6HR MIN TEMP:  30; 6HR MAX TEMP:  42;

FARMINGTON     CLOUDY    41  21  45 S7        30.32F
6HR MIN TEMP:  30; 6HR MAX TEMP:  41;

POPLAR BLUFF   CLOUDY    39  27  62 E9        30.30F
6HR MIN TEMP:  31; 6HR MAX TEMP:  39;

WEST PLAINS    CLOUDY    41  22  46 SE7       30.28F
6HR MIN TEMP:  33; 6HR MAX TEMP:  41; 6HR PCP: TRACE;


$$



USA.gov is the U.S. government's official web portal to all federal, state and local government web resources and services.